Time,TemperatureF,DewpointF,PressureIn,WindDirection,WindDirectionDegrees,WindSpeedMPH,WindSpeedGustMPH,Humidity,HourlyPrecipIn,Conditions,Clouds,dailyrainin,SolarRadiationWatts/m^2,SoftwareType,DateUTC
2013-05-03 00:01:00,57.4,54.8,30.17,East,96,6.9,6.9,91,0.00,CLR,,0.00,0.0,WeatherDisplay:10.37,2013-05-03 04:01:00,
2013-05-03 00:02:00,57.4,54.8,30.17,East,93,5.8,5.8,91,0.00,CLR,,0.00,0.0,WeatherDisplay:10.37,2013-05-03 04:02:00,
2013-05-03 00:07:00,57.5,54.9,30.17,East,80,9.2,9.2,91,0.00,CLR,,0.00,0.0,WeatherDisplay:10.37,2013-05-03 04:07:00,
2013-05-03 00:12:00,57.5,54.9,30.17,East,88,10.4,10.4,91,0.00,CLR,,0.00,0.0,WeatherDisplay:10.37,2013-05-03 04:12:00,
2013-05-03 00:17:00,57.6,55.0,30.17,NE,47,4.0,4.0,91,0.00,CLR,,0.00,0.0,WeatherDisplay:10.37,2013-05-03 04:17:00,
2013-05-03 00:22:00,57.7,55.1,30.17,ENE,71,11.0,11.0,91,0.00,CLR,,0.00,0.0,WeatherDisplay:10.37,2013-05-03 04:22:00,
2013-05-03 00:27:00,57.7,55.1,30.16,East,83,9.2,9.2,91,0.00,CLR,,0.00,0.0,WeatherDisplay:10.37,2013-05-03 04:27:00,
2013-05-03 00:32:00,57.8,54.9,30.16,East,80,9.2,9.2,90,0.00,CLR,,0.00,0.0,WeatherDisplay:10.37,2013-05-03 04:32:00,
2013-05-03 00:37:00,58.0,55.1,30.16,ESE,108,13.0,13.0,90,0.00,CLR,,0.00,0.0,WeatherDisplay:10.37,2013-05-03 04:37:00,
2013-05-03 00:42:00,58.1,55.2,30.16,ENE,65,16.1,16.1,90,0.00,CLR,,0.00,0.0,WeatherDisplay:10.37,2013-05-03 04:42:00,
2013-05-03 00:47:00,58.2,55.3,30.16,ENE,69,10.0,10.0,90,0.00,CLR,,0.00,0.0,WeatherDisplay:10.37,2013-05-03 04:47:00,
2013-05-03 00:52:00,58.3,56.0,30.16,East,84,3.5,3.6,92,0.00,CLR,,0.00,0.0,WeatherDisplay:10.37,2013-05-03 04:52:00,
2013-05-03 00:57:00,58.3,55.4,30.16,ESE,111,19.6,19.6,90,0.00,CLR,,0.00,0.0,WeatherDisplay:10.37,2013-05-03 04:57:00,
2013-05-03 01:02:00,58.2,55.3,30.16,East,81,12.7,12.7,90,0.00,CLR,,0.00,0.0,WeatherDisplay:10.37,2013-05-03 05:02:00,
2013-05-03 01:07:00,58.2,55.6,30.16,ESE,104,10.4,10.4,91,0.00,CLR,,0.00,0.0,WeatherDisplay:10.37,2013-05-03 05:07:00,
2013-05-03 01:12:00,58.1,55.5,30.16,ENE,66,9.2,9.2,91,0.00,CLR,,0.00,0.0,WeatherDisplay:10.37,2013-05-03 05:12:00,
2013-05-03 01:17:00,57.9,55.6,30.15,East,96,8.1,8.1,92,0.00,CLR,,0.00,0.0,WeatherDisplay:10.37,2013-05-03 05:17:00,
2013-05-03 01:22:00,57.8,55.5,30.15,ESE,106,10.0,10.0,92,0.00,CLR,,0.00,0.0,WeatherDisplay:10.37,2013-05-03 05:22:00,
2013-05-03 01:27:00,57.7,55.4,30.15,East,92,8.1,8.1,92,0.00,CLR,,0.00,0.0,WeatherDisplay:10.37,2013-05-03 05:27:00,
2013-05-03 01:32:00,57.6,55.6,30.15,East,100,6.9,6.9,93,0.00,CLR,,0.00,0.0,WeatherDisplay:10.37,2013-05-03 05:32:00,
2013-05-03 01:37:00,57.5,55.5,30.15,ESE,111,12.0,12.0,93,0.00,CLR,,0.00,0.0,WeatherDisplay:10.37,2013-05-03 05:37:00,
2013-05-03 01:42:00,57.4,55.4,30.14,SE,130,12.7,12.7,93,0.00,CLR,,0.00,0.0,WeatherDisplay:10.37,2013-05-03 05:42:00,
2013-05-03 01:47:00,57.3,55.3,30.14,East,87,4.6,4.6,93,0.00,CLR,,0.00,0.0,WeatherDisplay:10.37,2013-05-03 05:47:00,
2013-05-03 01:52:00,57.2,55.5,30.14,ENE,78,9.0,9.0,94,0.00,CLR,,0.00,0.0,WeatherDisplay:10.37,2013-05-03 05:52:00,
2013-05-03 01:57:00,57.1,55.4,30.13,East,90,11.5,11.5,94,0.00,CLR,,0.00,0.0,WeatherDisplay:10.37,2013-05-03 05:57:00,
2013-05-03 02:02:00,57.0,55.3,30.12,East,84,13.8,13.8,94,0.00,CLR,,0.00,0.0,WeatherDisplay:10.37,2013-05-03 06:02:00,
2013-05-03 02:07:00,56.9,55.2,30.12,East,96,11.5,11.5,94,0.00,CLR,,0.00,0.0,WeatherDisplay:10.37,2013-05-03 06:07:00,
2013-05-03 02:12:00,56.9,55.5,30.12,SE,124,9.2,9.2,95,0.00,CLR,,0.00,0.0,WeatherDisplay:10.37,2013-05-03 06:12:00,
2013-05-03 02:17:00,56.9,55.2,30.12,ENE,71,13.8,13.8,94,0.00,CLR,,0.00,0.0,WeatherDisplay:10.37,2013-05-03 06:17:00,
2013-05-03 02:22:00,56.8,55.1,30.12,East,101,11.5,11.5,94,0.00,CLR,,0.00,0.0,WeatherDisplay:10.37,2013-05-03 06:22:00,
2013-05-03 02:27:00,56.8,55.1,30.13,ESE,120,11.5,11.5,94,0.00,CLR,,0.00,0.0,WeatherDisplay:10.37,2013-05-03 06:27:00,
2013-05-03 02:32:00,56.8,55.4,30.12,ESE,111,11.5,11.5,95,0.00,CLR,,0.00,0.0,WeatherDisplay:10.37,2013-05-03 06:32:00,
2013-05-03 02:37:00,56.7,55.0,30.12,ENE,71,10.4,10.4,94,0.00,CLR,,0.00,0.0,WeatherDisplay:10.37,2013-05-03 06:37:00,
2013-05-03 02:42:00,56.7,55.0,30.12,ESE,121,11.5,11.5,94,0.00,CLR,,0.00,0.0,WeatherDisplay:10.37,2013-05-03 06:42:00,
2013-05-03 02:47:00,56.7,55.0,30.12,ESE,107,12.7,12.7,94,0.00,CLR,,0.00,0.0,WeatherDisplay:10.37,2013-05-03 06:47:00,
2013-05-03 02:52:00,56.7,55.3,30.12,ENE,69,12.0,12.0,95,0.00,CLR,,0.00,0.0,WeatherDisplay:10.37,2013-05-03 06:52:00,
2013-05-03 02:57:00,56.7,55.0,30.12,East,88,12.7,12.7,94,0.00,CLR,,0.00,0.0,WeatherDisplay:10.37,2013-05-03 06:57:00,
2013-05-03 03:02:00,56.6,54.9,30.12,SE,142,10.4,10.4,94,0.00,CLR,,0.00,0.0,WeatherDisplay:10.37,2013-05-03 07:02:00,
2013-05-03 03:07:00,56.6,54.9,30.12,East,99,13.8,13.8,94,0.00,CLR,,0.00,0.0,WeatherDisplay:10.37,2013-05-03 07:07:00,
2013-05-03 03:12:00,56.6,55.2,30.12,East,92,15.0,15.0,95,0.00,CLR,,0.00,0.0,WeatherDisplay:10.37,2013-05-03 07:12:00,
2013-05-03 03:17:00,56.6,55.2,30.12,SE,134,13.0,13.0,95,0.00,CLR,,0.00,0.0,WeatherDisplay:10.37,2013-05-03 07:17:00,
2013-05-03 03:22:00,56.5,55.1,30.11,ENE,67,16.1,16.1,95,0.00,CLR,,0.00,0.0,WeatherDisplay:10.37,2013-05-03 07:22:00,
2013-05-03 03:27:00,56.5,55.1,30.11,East,98,7.0,7.0,95,0.00,CLR,,0.00,0.0,WeatherDisplay:10.37,2013-05-03 07:27:00,
2013-05-03 03:32:00,56.4,55.0,30.11,East,94,6.9,6.9,95,0.00,CLR,,0.00,0.0,WeatherDisplay:10.37,2013-05-03 07:32:00,
2013-05-03 03:37:00,56.4,55.0,30.11,SE,144,13.8,13.8,95,0.00,CLR,,0.00,0.0,WeatherDisplay:10.37,2013-05-03 07:37:00,
2013-05-03 03:42:00,56.4,55.0,30.11,ENE,72,11.5,11.5,95,0.00,CLR,,0.00,0.0,WeatherDisplay:10.37,2013-05-03 07:42:00,
2013-05-03 03:47:00,56.3,54.9,30.10,East,88,11.5,11.5,95,0.00,CLR,,0.00,0.0,WeatherDisplay:10.37,2013-05-03 07:47:00,
2013-05-03 03:52:00,56.3,54.9,30.10,East,80,15.0,15.0,95,0.00,CLR,,0.00,0.0,WeatherDisplay:10.37,2013-05-03 07:52:00,
2013-05-03 03:57:00,56.3,54.9,30.10,East,91,10.4,10.4,95,0.00,CLR,,0.00,0.0,WeatherDisplay:10.37,2013-05-03 07:57:00,
2013-05-03 04:02:00,56.3,54.9,30.10,ESE,120,8.1,8.1,95,0.00,CLR,,0.00,0.0,WeatherDisplay:10.37,2013-05-03 08:02:00,
2013-05-03 04:07:00,56.2,54.8,30.10,East,82,11.5,11.5,95,0.00,CLR,,0.00,0.0,WeatherDisplay:10.37,2013-05-03 08:07:00,
2013-05-03 04:12:00,56.2,55.1,30.09,ESE,116,13.8,13.8,96,0.00,CLR,,0.00,0.0,WeatherDisplay:10.37,2013-05-03 08:12:00,
2013-05-03 04:17:00,56.2,55.1,30.09,ENE,78,10.4,10.4,96,0.00,CLR,,0.00,0.0,WeatherDisplay:10.37,2013-05-03 08:17:00,
2013-05-03 04:22:00,56.2,54.8,30.09,East,79,12.7,12.7,95,0.00,CLR,,0.00,0.0,WeatherDisplay:10.37,2013-05-03 08:22:00,
2013-05-03 04:27:00,56.2,55.1,30.09,ENE,77,11.5,11.5,96,0.00,CLR,,0.00,0.0,WeatherDisplay:10.37,2013-05-03 08:27:00,
2013-05-03 04:32:00,56.2,54.8,30.09,East,88,12.0,12.0,95,0.00,CLR,,0.00,0.0,WeatherDisplay:10.37,2013-05-03 08:32:00,
2013-05-03 04:37:00,56.2,54.8,30.09,ESE,117,11.5,11.5,95,0.00,CLR,,0.00,0.0,WeatherDisplay:10.37,2013-05-03 08:37:00,
2013-05-03 04:42:00,56.2,54.8,30.09,ENE,76,10.0,10.0,95,0.00,CLR,,0.00,0.0,WeatherDisplay:10.37,2013-05-03 08:42:00,
2013-05-03 04:47:00,56.2,54.8,30.08,ESE,123,5.8,5.8,95,0.00,CLR,,0.00,0.0,WeatherDisplay:10.37,2013-05-03 08:47:00,
2013-05-03 04:52:00,56.2,54.8,30.08,ESE,103,15.0,15.0,95,0.00,CLR,,0.00,0.0,WeatherDisplay:10.37,2013-05-03 08:52:00,
2013-05-03 04:57:00,56.2,54.8,30.08,ESE,120,13.0,13.0,95,0.00,CLR,,0.00,0.0,WeatherDisplay:10.37,2013-05-03 08:57:00,
2013-05-03 05:02:00,56.3,54.9,30.08,ENE,67,16.0,16.0,95,0.00,CLR,,0.00,0.0,WeatherDisplay:10.37,2013-05-03 09:02:00,
2013-05-03 05:07:00,56.3,54.9,30.08,ESE,106,15.0,15.0,95,0.00,CLR,,0.00,0.0,WeatherDisplay:10.37,2013-05-03 09:07:00,
2013-05-03 05:12:00,56.3,54.9,30.08,East,95,10.4,10.4,95,0.00,CLR,,0.00,0.0,WeatherDisplay:10.37,2013-05-03 09:12:00,
2013-05-03 05:17:00,56.3,54.9,30.08,SE,126,11.5,11.5,95,0.00,CLR,,0.00,0.0,WeatherDisplay:10.37,2013-05-03 09:17:00,
2013-05-03 05:22:00,56.3,54.9,30.08,ENE,66,13.8,13.8,95,0.00,CLR,,0.00,0.0,WeatherDisplay:10.37,2013-05-03 09:22:00,
2013-05-03 05:27:00,56.3,54.9,30.09,SE,124,11.5,11.5,95,0.00,CLR,,0.00,0.0,WeatherDisplay:10.37,2013-05-03 09:27:00,
2013-05-03 05:32:00,56.3,54.9,30.09,East,84,11.5,11.5,95,0.00,CLR,,0.00,0.0,WeatherDisplay:10.37,2013-05-03 09:32:00,
2013-05-03 05:37:00,56.3,54.9,30.09,East,83,10.4,10.4,95,0.00,CLR,,0.00,0.0,WeatherDisplay:10.37,2013-05-03 09:37:00,
2013-05-03 05:42:00,56.3,54.9,30.09,SE,127,15.0,15.0,95,0.00,CLR,,0.00,0.0,WeatherDisplay:10.37,2013-05-03 09:42:00,
2013-05-03 05:47:00,56.2,54.8,30.08,ESE,109,13.8,13.8,95,0.00,CLR,,0.00,0.0,WeatherDisplay:10.37,2013-05-03 09:47:00,
2013-05-03 05:53:00,56.2,54.8,30.09,ESE,106,11.5,11.5,95,0.00,CLR,,0.00,0.0,WeatherDisplay:10.37,2013-05-03 09:53:00,
2013-05-03 05:58:00,56.2,54.8,30.09,East,85,19.6,19.6,95,0.00,CLR,,0.00,0.0,WeatherDisplay:10.37,2013-05-03 09:58:00,
2013-05-03 06:03:00,56.1,54.7,30.09,East,80,11.5,11.5,95,0.00,CLR,,0.00,0.0,WeatherDisplay:10.37,2013-05-03 10:03:00,
2013-05-03 06:08:00,56.1,54.7,30.09,ESE,102,8.1,8.1,95,0.00,CLR,,0.00,0.0,WeatherDisplay:10.37,2013-05-03 10:08:00,
2013-05-03 06:13:00,56.0,54.6,30.09,ESE,104,11.5,11.5,95,0.00,CLR,,0.00,0.0,WeatherDisplay:10.37,2013-05-03 10:13:00,
2013-05-03 06:18:00,55.9,54.5,30.09,ESE,115,12.7,12.7,95,0.00,CLR,,0.00,0.0,WeatherDisplay:10.37,2013-05-03 10:18:00,
2013-05-03 06:23:00,55.9,54.8,30.09,ESE,112,11.5,11.5,96,0.00,CLR,,0.00,0.0,WeatherDisplay:10.37,2013-05-03 10:23:00,
2013-05-03 06:28:00,55.8,54.7,30.09,ESE,108,18.4,18.4,96,0.00,CLR,,0.00,0.0,WeatherDisplay:10.37,2013-05-03 10:28:00,
2013-05-03 06:33:00,55.8,54.7,30.09,ESE,103,15.0,15.0,96,0.00,CLR,,0.00,0.0,WeatherDisplay:10.37,2013-05-03 10:33:00,
2013-05-03 06:38:00,55.7,54.6,30.10,SE,130,11.5,11.5,96,0.00,CLR,,0.00,0.0,WeatherDisplay:10.37,2013-05-03 10:38:00,
2013-05-03 06:43:00,55.7,54.6,30.10,ENE,74,6.9,6.9,96,0.00,CLR,,0.00,0.0,WeatherDisplay:10.37,2013-05-03 10:43:00,
2013-05-03 06:48:00,55.7,54.6,30.10,ESE,107,11.0,11.0,96,0.00,CLR,,0.00,0.0,WeatherDisplay:10.37,2013-05-03 10:48:00,
2013-05-03 06:53:00,55.6,54.5,30.10,SE,138,13.8,13.8,96,0.00,CLR,,0.00,0.0,WeatherDisplay:10.37,2013-05-03 10:53:00,
2013-05-03 06:58:00,55.6,54.5,30.10,East,95,10.4,10.4,96,0.00,CLR,,0.00,0.0,WeatherDisplay:10.37,2013-05-03 10:58:00,
2013-05-03 07:03:00,55.6,54.5,30.10,East,79,12.7,12.7,96,0.00,CLR,,0.00,0.0,WeatherDisplay:10.37,2013-05-03 11:03:00,
2013-05-03 07:08:00,55.6,54.5,30.10,East,96,9.2,9.2,96,0.00,CLR,,0.00,0.0,WeatherDisplay:10.37,2013-05-03 11:08:00,
2013-05-03 07:13:00,55.5,54.4,30.10,ESE,123,10.4,10.4,96,0.00,CLR,,0.00,0.0,WeatherDisplay:10.37,2013-05-03 11:13:00,
2013-05-03 07:18:00,55.5,54.4,30.10,ESE,120,11.5,11.5,96,0.00,CLR,,0.00,0.0,WeatherDisplay:10.37,2013-05-03 11:18:00,
2013-05-03 07:23:00,55.5,54.4,30.10,East,101,11.5,11.5,96,0.00,CLR,,0.00,0.0,WeatherDisplay:10.37,2013-05-03 11:23:00,
2013-05-03 07:28:00,55.5,54.4,30.11,SE,141,5.8,5.8,96,0.00,CLR,,0.00,0.0,WeatherDisplay:10.37,2013-05-03 11:28:00,
2013-05-03 07:33:00,55.4,54.3,30.11,ENE,76,7.0,7.0,96,0.00,CLR,,0.00,0.0,WeatherDisplay:10.37,2013-05-03 11:33:00,
2013-05-03 07:38:00,55.4,55.1,30.11,East,89,11.5,11.5,99,0.00,CLR,,0.00,5.0,WeatherDisplay:10.37,2013-05-03 11:38:00,
2013-05-03 07:43:00,55.4,54.3,30.11,East,101,6.0,6.0,96,0.00,CLR,,0.00,5.0,WeatherDisplay:10.37,2013-05-03 11:43:00,
2013-05-03 07:48:00,55.4,54.3,30.11,NE,38,12.7,12.7,96,0.00,CLR,,0.00,7.0,WeatherDisplay:10.37,2013-05-03 11:48:00,
2013-05-03 07:53:00,55.4,54.3,30.11,East,92,11.5,11.5,96,0.00,CLR,,0.00,5.0,WeatherDisplay:10.37,2013-05-03 11:53:00,
2013-05-03 07:58:00,55.3,54.2,30.11,East,83,23.0,23.0,96,0.00,CLR,,0.00,0.0,WeatherDisplay:10.37,2013-05-03 11:58:00,
2013-05-03 08:03:00,55.3,54.2,30.11,ESE,116,7.0,7.0,96,0.00,OVC,,0.00,7.0,WeatherDisplay:10.37,2013-05-03 12:03:00,
2013-05-03 08:08:00,55.4,54.3,30.11,ESE,108,11.5,11.5,96,0.00,OVC,,0.00,7.0,WeatherDisplay:10.37,2013-05-03 12:08:00,
2013-05-03 08:13:00,55.3,54.2,30.11,ESE,121,6.9,6.9,96,0.00,OVC,,0.00,7.0,WeatherDisplay:10.37,2013-05-03 12:13:00,
2013-05-03 08:18:00,55.3,54.2,30.11,ESE,105,10.4,10.4,96,0.00,OVC,,0.00,9.0,WeatherDisplay:10.37,2013-05-03 12:18:00,
2013-05-03 08:23:00,55.3,54.2,30.11,ESE,105,15.0,15.0,96,0.00,OVC,,0.00,11.0,WeatherDisplay:10.37,2013-05-03 12:23:00,
2013-05-03 08:28:00,55.3,54.2,30.12,SSE,161,11.5,11.5,96,0.00,OVC,,0.00,11.0,WeatherDisplay:10.37,2013-05-03 12:28:00,
2013-05-03 08:33:00,55.3,54.2,30.12,ESE,102,0.0,3.2,96,0.00,OVC,,0.00,11.0,WeatherDisplay:10.37,2013-05-03 12:33:00,
2013-05-03 08:38:00,55.3,54.2,30.12,ESE,115,5.8,5.8,96,0.00,OVC,,0.00,12.0,WeatherDisplay:10.37,2013-05-03 12:38:00,
2013-05-03 08:43:00,55.3,54.2,30.12,ENE,76,8.1,8.1,96,0.00,OVC,,0.00,16.0,WeatherDisplay:10.37,2013-05-03 12:43:00,
2013-05-03 08:48:00,55.3,54.2,30.11,East,97,10.4,10.4,96,0.01,RA,,0.01,26.0,WeatherDisplay:10.37,2013-05-03 12:48:00,
2013-05-03 08:53:00,55.3,54.2,30.11,ESE,113,12.7,12.7,96,0.01,RA,,0.01,26.0,WeatherDisplay:10.37,2013-05-03 12:53:00,
2013-05-03 08:58:00,55.3,54.2,30.12,ENE,57,5.8,5.8,96,0.01,OVC,,0.01,30.0,WeatherDisplay:10.37,2013-05-03 12:58:00,
2013-05-03 09:03:00,55.3,54.2,30.12,ESE,102,13.8,13.8,96,0.01,OVC,,0.01,23.0,WeatherDisplay:10.37,2013-05-03 13:03:00,
2013-05-03 09:08:00,55.2,54.1,30.11,East,84,3.5,3.5,96,0.02,RA,,0.02,25.0,WeatherDisplay:10.37,2013-05-03 13:08:00,
2013-05-03 09:13:00,55.2,54.1,30.11,East,100,19.6,19.6,96,0.02,RA,,0.02,32.0,WeatherDisplay:10.37,2013-05-03 13:13:00,
2013-05-03 09:18:00,55.1,54.0,30.11,East,91,4.6,4.6,96,0.02,OVC,,0.02,33.0,WeatherDisplay:10.37,2013-05-03 13:18:00,
2013-05-03 09:23:00,55.1,54.3,30.11,ESE,110,20.7,20.7,97,0.02,OVC,,0.02,35.0,WeatherDisplay:10.37,2013-05-03 13:23:00,
2013-05-03 09:28:00,55.1,54.3,30.11,East,85,11.5,11.5,97,0.02,OVC,,0.02,40.0,WeatherDisplay:10.37,2013-05-03 13:28:00,
2013-05-03 09:33:00,55.0,54.2,30.11,ENE,78,12.7,12.7,97,0.02,OVC,,0.02,30.0,WeatherDisplay:10.37,2013-05-03 13:33:00,
2013-05-03 09:38:00,55.1,54.3,30.11,East,92,13.8,13.8,97,0.02,OVC,,0.02,26.0,WeatherDisplay:10.37,2013-05-03 13:38:00,
2013-05-03 09:43:00,55.0,54.2,30.11,East,82,11.5,11.5,97,0.02,OVC,,0.02,21.0,WeatherDisplay:10.37,2013-05-03 13:43:00,
2013-05-03 09:48:00,55.0,54.2,30.11,SE,137,6.9,6.9,97,0.01,OVC,,0.02,32.0,WeatherDisplay:10.37,2013-05-03 13:48:00,
2013-05-03 09:53:00,55.0,54.2,30.11,ESE,119,16.1,16.1,97,0.01,OVC,,0.02,35.0,WeatherDisplay:10.37,2013-05-03 13:53:00,
2013-05-03 09:58:00,55.0,54.2,30.11,SE,137,17.3,17.3,97,0.01,OVC,,0.02,42.0,WeatherDisplay:10.37,2013-05-03 13:58:00,
2013-05-03 10:03:00,54.9,54.1,30.11,East,88,13.8,13.8,97,0.01,OVC,,0.02,91.0,WeatherDisplay:10.37,2013-05-03 14:03:00,
2013-05-03 10:08:00,54.9,54.1,30.11,ENE,65,6.9,6.9,97,0.00,OVC,,0.02,77.0,WeatherDisplay:10.37,2013-05-03 14:08:00,
2013-05-03 10:13:00,54.9,54.1,30.11,NNE,26,21.9,21.9,97,0.00,OVC,,0.02,62.0,WeatherDisplay:10.37,2013-05-03 14:13:00,
2013-05-03 10:18:00,55.0,54.2,30.11,ENE,70,16.1,16.1,97,0.00,OVC,,0.02,186.0,WeatherDisplay:10.37,2013-05-03 14:18:00,
2013-05-03 10:23:00,55.1,54.3,30.11,ENE,63,15.0,15.0,97,0.00,OVC,,0.02,199.0,WeatherDisplay:10.37,2013-05-03 14:23:00,
2013-05-03 10:28:00,55.3,54.5,30.11,East,101,11.5,11.5,97,0.00,OVC,,0.02,264.0,WeatherDisplay:10.37,2013-05-03 14:28:00,
2013-05-03 10:33:00,55.5,54.7,30.11,East,101,11.5,11.5,97,0.00,OVC,,0.02,250.0,WeatherDisplay:10.37,2013-05-03 14:33:00,
2013-05-03 10:38:00,55.6,54.8,30.11,NE,34,3.5,3.5,97,0.00,OVC,,0.02,236.0,WeatherDisplay:10.37,2013-05-03 14:38:00,
2013-05-03 10:43:00,55.7,54.6,30.11,NE,39,15.0,15.0,96,0.00,OVC,,0.02,232.0,WeatherDisplay:10.37,2013-05-03 14:43:00,
2013-05-03 10:48:00,55.7,54.6,30.11,ESE,111,13.8,13.8,96,0.00,OVC,,0.02,237.0,WeatherDisplay:10.37,2013-05-03 14:48:00,
2013-05-03 10:53:00,55.9,54.8,30.11,East,94,10.4,10.4,96,0.00,OVC,,0.02,221.0,WeatherDisplay:10.37,2013-05-03 14:53:00,
2013-05-03 10:58:00,56.0,54.6,30.11,East,100,11.5,11.5,95,0.00,OVC,,0.02,287.0,WeatherDisplay:10.37,2013-05-03 14:58:00,
2013-05-03 11:03:00,56.1,54.4,30.10,ENE,74,15.0,15.0,94,0.00,OVC,,0.02,334.0,WeatherDisplay:10.37,2013-05-03 15:03:00,
2013-05-03 11:08:00,56.4,54.7,30.11,ESE,106,13.8,13.8,94,0.00,OVC,,0.02,336.0,WeatherDisplay:10.37,2013-05-03 15:08:00,
2013-05-03 11:13:00,56.6,54.6,30.10,ESE,113,20.7,20.7,93,0.00,OVC,,0.02,369.0,WeatherDisplay:10.37,2013-05-03 15:13:00,
2013-05-03 11:18:00,56.9,54.6,30.10,ENE,60,10.4,10.4,92,0.00,OVC,,0.02,381.0,WeatherDisplay:10.37,2013-05-03 15:18:00,
2013-05-03 11:23:00,57.3,54.7,30.11,ENE,65,10.4,10.4,91,0.00,OVC,,0.02,325.0,WeatherDisplay:10.37,2013-05-03 15:23:00,
2013-05-03 11:28:00,57.6,54.4,30.10,East,98,12.7,12.7,89,0.00,OVC,,0.02,239.0,WeatherDisplay:10.37,2013-05-03 15:28:00,
2013-05-03 11:33:00,57.6,54.4,30.10,ENE,73,12.7,12.7,89,0.00,OVC,,0.02,202.0,WeatherDisplay:10.37,2013-05-03 15:33:00,
2013-05-03 11:38:00,57.7,54.2,30.10,NE,51,11.5,11.5,88,0.00,OVC,,0.02,192.0,WeatherDisplay:10.37,2013-05-03 15:38:00,
2013-05-03 11:43:00,57.7,54.2,30.10,East,95,7.0,7.0,88,0.00,OVC,,0.02,234.0,WeatherDisplay:10.37,2013-05-03 15:43:00,
2013-05-03 11:48:00,57.8,54.3,30.10,ESE,106,10.4,10.4,88,0.00,CLR,,0.02,320.0,WeatherDisplay:10.37,2013-05-03 15:48:00,
2013-05-03 11:53:00,57.9,54.1,30.10,East,97,9.2,9.2,87,0.00,CLR,,0.02,345.0,WeatherDisplay:10.37,2013-05-03 15:53:00,
2013-05-03 11:58:00,58.1,53.6,30.10,ENE,57,11.5,11.5,85,0.00,CLR,,0.02,306.0,WeatherDisplay:10.37,2013-05-03 15:58:00,
2013-05-03 12:03:00,58.3,53.2,30.10,ESE,117,12.7,12.7,83,0.00,CLR,,0.02,265.0,WeatherDisplay:10.37,2013-05-03 16:03:00,
2013-05-03 12:08:00,58.4,53.3,30.11,East,94,18.4,18.4,83,0.00,CLR,,0.02,237.0,WeatherDisplay:10.37,2013-05-03 16:08:00,
2013-05-03 12:13:00,58.3,53.2,30.10,East,99,4.6,4.6,83,0.00,CLR,,0.02,192.0,WeatherDisplay:10.37,2013-05-03 16:13:00,
2013-05-03 12:18:00,58.3,53.2,30.10,SE,146,12.7,12.7,83,0.00,CLR,,0.02,237.0,WeatherDisplay:10.37,2013-05-03 16:18:00,
2013-05-03 12:23:00,58.2,53.4,30.10,SE,125,6.9,6.9,84,0.00,CLR,,0.02,241.0,WeatherDisplay:10.37,2013-05-03 16:23:00,
2013-05-03 12:28:00,58.3,53.5,30.10,ENE,63,3.5,3.5,84,0.00,CLR,,0.02,250.0,WeatherDisplay:10.37,2013-05-03 16:28:00,
2013-05-03 12:33:00,58.4,53.6,30.10,ENE,73,7.0,7.0,84,0.00,CLR,,0.02,216.0,WeatherDisplay:10.37,2013-05-03 16:33:00,
2013-05-03 12:38:00,58.4,53.6,30.09,ENE,72,8.1,8.1,84,0.00,CLR,,0.02,160.0,WeatherDisplay:10.37,2013-05-03 16:38:00,
2013-05-03 12:43:00,58.4,53.6,30.09,East,92,10.4,10.4,84,0.00,CLR,,0.02,163.0,WeatherDisplay:10.37,2013-05-03 16:43:00,
2013-05-03 12:48:00,58.4,53.9,30.09,East,97,0.0,0.0,85,0.00,CLR,,0.02,167.0,WeatherDisplay:10.37,2013-05-03 16:48:00,
2013-05-03 12:53:00,58.5,54.3,30.09,East,100,9.2,9.2,86,0.00,CLR,,0.02,169.0,WeatherDisplay:10.37,2013-05-03 16:53:00,
2013-05-03 12:58:00,58.4,53.6,30.09,East,101,9.2,9.2,84,0.00,CLR,,0.02,160.0,WeatherDisplay:10.37,2013-05-03 16:58:00,
2013-05-03 13:04:00,58.4,54.2,30.09,East,86,11.0,11.0,86,0.00,FEW,,0.02,195.0,WeatherDisplay:10.37,2013-05-03 17:04:00,
2013-05-03 13:09:00,58.2,54.3,30.09,East,81,11.5,11.5,87,0.00,CLR,,0.04,202.0,WeatherDisplay:10.37,2013-05-03 17:09:00,
2013-05-03 13:14:00,57.9,54.7,30.09,ENE,65,12.7,12.7,89,0.01,RA,,0.04,139.0,WeatherDisplay:10.37,2013-05-03 17:14:00,
2013-05-03 13:19:00,57.6,54.7,30.09,SSE,154,6.9,6.9,90,0.02,RA,,0.05,172.0,WeatherDisplay:10.37,2013-05-03 17:19:00,
2013-05-03 13:24:00,57.3,54.7,30.09,ESE,109,11.5,11.5,91,0.02,RA,,0.05,225.0,WeatherDisplay:10.37,2013-05-03 17:24:00,
2013-05-03 13:29:00,57.0,55.0,30.09,ESE,105,3.5,3.5,93,0.04,RA,,0.06,267.0,WeatherDisplay:10.37,2013-05-03 17:29:00,
2013-05-03 13:34:00,56.9,54.9,30.09,SE,126,15.0,15.0,93,0.05,RA,,0.07,257.0,WeatherDisplay:10.37,2013-05-03 17:34:00,
2013-05-03 13:39:00,56.9,55.2,30.09,East,94,11.0,11.0,94,0.05,RA,,0.07,195.0,WeatherDisplay:10.37,2013-05-03 17:39:00,
2013-05-03 13:44:00,56.8,55.1,30.08,East,91,9.2,9.2,94,0.06,RA,,0.08,190.0,WeatherDisplay:10.37,2013-05-03 17:44:00,
2013-05-03 13:49:00,56.7,55.0,30.09,ESE,111,11.0,11.0,94,0.07,RA,,0.10,179.0,WeatherDisplay:10.37,2013-05-03 17:49:00,
2013-05-03 13:54:00,56.6,54.9,30.08,ESE,105,18.4,18.4,94,0.07,RA,,0.10,234.0,WeatherDisplay:10.37,2013-05-03 17:54:00,
2013-05-03 13:59:00,56.5,55.1,30.08,East,96,9.2,9.2,95,0.07,SCT,,0.10,202.0,WeatherDisplay:10.37,2013-05-03 17:59:00,
2013-05-03 14:04:00,56.5,55.1,30.08,East,98,21.9,21.9,95,0.07,SCT,,0.10,246.0,WeatherDisplay:10.37,2013-05-03 18:04:00,
2013-05-03 14:09:00,56.5,55.1,30.08,ESE,103,13.8,13.8,95,0.07,SCT,,0.10,223.0,WeatherDisplay:10.37,2013-05-03 18:09:00,
2013-05-03 14:14:00,56.4,55.0,30.08,SE,128,16.1,16.1,95,0.06,BKN,,0.10,174.0,WeatherDisplay:10.37,2013-05-03 18:14:00,
2013-05-03 14:19:00,56.5,55.1,30.08,East,93,17.3,17.3,95,0.05,BKN,,0.10,156.0,WeatherDisplay:10.37,2013-05-03 18:19:00,
2013-05-03 14:24:00,56.6,55.5,30.08,ESE,110,4.0,4.0,96,0.05,BKN,,0.10,128.0,WeatherDisplay:10.37,2013-05-03 18:24:00,
2013-05-03 14:29:00,56.5,55.4,30.08,NE,41,12.7,12.7,96,0.05,RA,,0.11,146.0,WeatherDisplay:10.37,2013-05-03 18:29:00,
2013-05-03 14:34:00,56.4,55.0,30.08,ESE,117,13.8,13.8,95,0.04,RA,,0.11,213.0,WeatherDisplay:10.37,2013-05-03 18:34:00,
2013-05-03 14:39:00,56.4,55.3,30.08,ENE,74,17.3,17.3,96,0.04,BKN,,0.11,141.0,WeatherDisplay:10.37,2013-05-03 18:39:00,
2013-05-03 14:44:00,56.4,55.3,30.08,ESE,123,9.2,9.2,96,0.04,RA,,0.12,153.0,WeatherDisplay:10.37,2013-05-03 18:44:00,
2013-05-03 14:49:00,56.4,55.3,30.08,East,88,11.5,11.5,96,0.02,RA,,0.12,123.0,WeatherDisplay:10.37,2013-05-03 18:49:00,
2013-05-03 14:54:00,56.3,55.2,30.08,East,88,6.9,6.9,96,0.04,RA,,0.13,113.0,WeatherDisplay:10.37,2013-05-03 18:54:00,
2013-05-03 14:59:00,56.3,55.2,30.08,East,99,13.8,13.8,96,0.04,RA,,0.13,179.0,WeatherDisplay:10.37,2013-05-03 18:59:00,
2013-05-03 15:04:00,56.2,55.1,30.08,ENE,69,11.5,11.5,96,0.05,RA,,0.15,197.0,WeatherDisplay:10.37,2013-05-03 19:04:00,
2013-05-03 15:09:00,56.2,55.1,30.08,NNE,26,10.4,10.4,96,0.05,RA,,0.15,229.0,WeatherDisplay:10.37,2013-05-03 19:09:00,
2013-05-03 15:14:00,56.4,55.3,30.07,SE,138,13.0,13.0,96,0.05,BKN,,0.15,318.0,WeatherDisplay:10.37,2013-05-03 19:14:00,
2013-05-03 15:19:00,56.7,55.9,30.07,East,83,14.0,14.0,97,0.05,SCT,,0.15,378.0,WeatherDisplay:10.37,2013-05-03 19:19:00,
2013-05-03 15:24:00,56.9,56.1,30.07,ESE,104,9.2,9.2,97,0.05,BKN,,0.15,234.0,WeatherDisplay:10.37,2013-05-03 19:24:00,
2013-05-03 15:29:00,56.9,55.8,30.07,East,90,11.5,11.5,96,0.04,BKN,,0.15,155.0,WeatherDisplay:10.37,2013-05-03 19:29:00,
2013-05-03 15:34:00,56.8,55.7,30.06,ESE,107,10.4,10.4,96,0.04,BKN,,0.15,113.0,WeatherDisplay:10.37,2013-05-03 19:34:00,
2013-05-03 15:39:00,56.7,55.6,30.06,ENE,65,14.0,14.0,96,0.04,BKN,,0.15,111.0,WeatherDisplay:10.37,2013-05-03 19:39:00,
2013-05-03 15:44:00,56.5,55.4,30.06,ESE,113,12.7,12.7,96,0.02,BKN,,0.15,70.0,WeatherDisplay:10.37,2013-05-03 19:44:00,
2013-05-03 15:49:00,56.3,55.2,30.06,East,88,13.8,13.8,96,0.02,BKN,,0.15,172.0,WeatherDisplay:10.37,2013-05-03 19:49:00,
2013-05-03 15:54:00,56.4,55.3,30.05,East,88,9.2,9.2,96,0.01,BKN,,0.15,367.0,WeatherDisplay:10.37,2013-05-03 19:54:00,
2013-05-03 15:59:00,56.8,56.0,30.05,NE,38,14.0,14.0,97,0.01,BKN,,0.15,462.0,WeatherDisplay:10.37,2013-05-03 19:59:00,
2013-05-03 16:04:00,57.4,56.6,30.05,East,90,11.5,11.5,97,0.00,BKN,,0.15,418.0,WeatherDisplay:10.37,2013-05-03 20:04:00,
2013-05-03 16:09:00,57.8,57.0,30.05,ESE,112,18.4,18.4,97,0.00,BKN,,0.15,346.0,WeatherDisplay:10.37,2013-05-03 20:09:00,
2013-05-03 16:14:00,57.8,56.7,30.05,ESE,115,11.5,11.5,96,0.00,BKN,,0.15,186.0,WeatherDisplay:10.37,2013-05-03 20:14:00,
2013-05-03 16:19:00,57.7,56.6,30.05,ESE,119,12.0,12.0,96,0.00,BKN,,0.15,267.0,WeatherDisplay:10.37,2013-05-03 20:19:00,
2013-05-03 16:24:00,57.6,56.2,30.05,East,94,15.0,15.0,95,0.00,BKN,,0.15,162.0,WeatherDisplay:10.37,2013-05-03 20:24:00,
2013-05-03 16:29:00,57.5,56.1,30.05,East,94,12.7,12.7,95,0.00,BKN,,0.15,139.0,WeatherDisplay:10.37,2013-05-03 20:29:00,
2013-05-03 16:34:00,57.4,56.0,30.05,ESE,104,11.5,11.5,95,0.00,BKN,,0.15,72.0,WeatherDisplay:10.37,2013-05-03 20:34:00,
2013-05-03 16:39:00,57.2,55.5,30.05,ESE,108,11.5,11.5,94,0.00,BKN,,0.15,77.0,WeatherDisplay:10.37,2013-05-03 20:39:00,
2013-05-03 16:44:00,57.0,55.3,30.05,East,98,12.7,12.7,94,0.00,BKN,,0.15,62.0,WeatherDisplay:10.37,2013-05-03 20:44:00,
2013-05-03 16:49:00,56.8,55.1,30.05,ESE,117,19.6,19.6,94,0.00,BKN,,0.15,63.0,WeatherDisplay:10.37,2013-05-03 20:49:00,
2013-05-03 16:54:00,56.8,55.1,30.04,East,86,15.0,15.0,94,0.00,BKN,,0.15,72.0,WeatherDisplay:10.37,2013-05-03 20:54:00,
2013-05-03 16:59:00,56.7,55.0,30.04,East,101,11.5,11.5,94,0.00,BKN,,0.15,86.0,WeatherDisplay:10.37,2013-05-03 20:59:00,
2013-05-03 17:04:00,56.6,55.2,30.05,SSE,148,11.5,11.5,95,0.00,BKN,,0.15,90.0,WeatherDisplay:10.37,2013-05-03 21:04:00,
2013-05-03 17:09:00,56.6,55.2,30.05,ENE,70,18.4,18.4,95,0.00,BKN,,0.15,98.0,WeatherDisplay:10.37,2013-05-03 21:09:00,
2013-05-03 17:14:00,56.6,55.2,30.05,East,81,5.8,5.8,95,0.00,BKN,,0.15,83.0,WeatherDisplay:10.37,2013-05-03 21:14:00,
2013-05-03 17:19:00,56.6,55.2,30.05,ESE,109,17.3,17.3,95,0.00,OVC,,0.15,56.0,WeatherDisplay:10.37,2013-05-03 21:19:00,
2013-05-03 17:24:00,56.5,55.1,30.04,East,101,11.5,11.5,95,0.00,BKN,,0.15,69.0,WeatherDisplay:10.37,2013-05-03 21:24:00,
2013-05-03 17:29:00,56.4,55.0,30.04,NE,46,11.5,11.5,95,0.00,BKN,,0.15,97.0,WeatherDisplay:10.37,2013-05-03 21:29:00,
2013-05-03 17:34:00,56.4,55.0,30.03,NE,55,12.7,12.7,95,0.00,BKN,,0.15,142.0,WeatherDisplay:10.37,2013-05-03 21:34:00,
2013-05-03 17:39:00,56.5,55.1,30.04,NE,52,18.4,18.4,95,0.00,BKN,,0.15,91.0,WeatherDisplay:10.37,2013-05-03 21:39:00,
2013-05-03 17:44:00,56.5,55.1,30.04,ESE,109,9.2,9.2,95,0.00,BKN,,0.15,88.0,WeatherDisplay:10.37,2013-05-03 21:44:00,
2013-05-03 17:49:00,56.4,55.0,30.04,East,90,5.8,5.8,95,0.00,BKN,,0.15,69.0,WeatherDisplay:10.37,2013-05-03 21:49:00,
2013-05-03 17:54:00,56.4,55.0,30.04,ENE,71,11.5,11.5,95,0.00,OVC,,0.15,39.0,WeatherDisplay:10.37,2013-05-03 21:54:00,
2013-05-03 17:59:00,56.3,54.6,30.05,ESE,109,13.0,13.0,94,0.00,OVC,,0.15,25.0,WeatherDisplay:10.37,2013-05-03 21:59:00,
2013-05-03 18:04:00,56.3,54.6,30.04,East,98,13.8,13.8,94,0.00,OVC,,0.15,39.0,WeatherDisplay:10.37,2013-05-03 22:04:00,
2013-05-03 18:09:00,56.2,54.5,30.04,ESE,102,11.5,11.5,94,0.00,BKN,,0.15,77.0,WeatherDisplay:10.37,2013-05-03 22:09:00,
2013-05-03 18:14:00,56.3,54.6,30.04,ESE,111,9.2,9.2,94,0.00,BKN,,0.15,105.0,WeatherDisplay:10.37,2013-05-03 22:14:00,
2013-05-03 18:19:00,56.4,54.7,30.03,East,88,3.5,3.5,94,0.00,OVC,,0.15,53.0,WeatherDisplay:10.37,2013-05-03 22:19:00,
2013-05-03 18:24:00,56.4,55.0,30.03,East,86,9.2,9.2,95,0.00,BKN,,0.15,90.0,WeatherDisplay:10.37,2013-05-03 22:24:00,
2013-05-03 18:29:00,56.6,55.2,30.03,SE,136,12.7,12.7,95,0.00,OVC,,0.15,42.0,WeatherDisplay:10.37,2013-05-03 22:29:00,
2013-05-03 18:34:00,56.5,54.8,30.03,ENE,74,9.2,9.2,94,0.00,OVC,,0.15,40.0,WeatherDisplay:10.37,2013-05-03 22:34:00,
2013-05-03 18:39:00,56.5,54.8,30.03,ESE,119,5.0,5.0,94,0.00,BKN,,0.15,70.0,WeatherDisplay:10.37,2013-05-03 22:39:00,
2013-05-03 18:44:00,56.6,54.9,30.03,ESE,115,11.5,11.5,94,0.00,OVC,,0.15,67.0,WeatherDisplay:10.37,2013-05-03 22:44:00,
2013-05-03 18:49:00,56.6,54.9,30.02,SE,142,12.7,12.7,94,0.00,OVC,,0.15,63.0,WeatherDisplay:10.37,2013-05-03 22:49:00,
2013-05-03 18:54:00,56.7,55.0,30.02,ESE,109,5.8,5.8,94,0.00,BKN,,0.15,63.0,WeatherDisplay:10.37,2013-05-03 22:54:00,
2013-05-03 18:59:00,56.6,54.9,30.02,SE,130,11.5,11.5,94,0.00,OVC,,0.15,47.0,WeatherDisplay:10.37,2013-05-03 22:59:00,
2013-05-03 19:04:00,56.6,54.9,30.02,East,86,9.2,9.2,94,0.00,CLR,,0.15,28.0,WeatherDisplay:10.37,2013-05-03 23:04:00,
2013-05-03 19:09:00,56.6,54.9,30.02,SE,126,15.0,15.0,94,0.00,CLR,,0.15,16.0,WeatherDisplay:10.37,2013-05-03 23:09:00,
2013-05-03 19:14:00,56.5,54.8,30.02,ENE,69,12.7,12.7,94,0.00,CLR,,0.15,26.0,WeatherDisplay:10.37,2013-05-03 23:14:00,
2013-05-03 19:19:00,56.5,54.8,30.02,West,259,6.0,6.0,94,0.00,CLR,,0.15,16.0,WeatherDisplay:10.37,2013-05-03 23:19:00,
2013-05-03 19:24:00,56.4,54.7,30.02,ESE,119,11.5,11.5,94,0.00,CLR,,0.15,18.0,WeatherDisplay:10.37,2013-05-03 23:24:00,
2013-05-03 19:29:00,56.4,55.0,30.02,NE,44,19.6,19.6,95,0.00,CLR,,0.15,16.0,WeatherDisplay:10.37,2013-05-03 23:29:00,
2013-05-03 19:34:00,56.4,55.0,30.02,ESE,114,6.0,6.0,95,0.00,CLR,,0.15,19.0,WeatherDisplay:10.37,2013-05-03 23:34:00,
2013-05-03 19:39:00,56.4,55.0,30.02,ESE,106,22.0,22.0,95,0.00,CLR,,0.15,14.0,WeatherDisplay:10.37,2013-05-03 23:39:00,
2013-05-03 19:44:00,56.4,55.0,30.02,SE,143,10.4,10.4,95,0.00,CLR,,0.15,11.0,WeatherDisplay:10.37,2013-05-03 23:44:00,
2013-05-03 19:49:00,56.4,55.0,30.02,ESE,102,14.0,14.0,95,0.00,CLR,,0.15,9.0,WeatherDisplay:10.37,2013-05-03 23:49:00,
2013-05-03 19:54:00,56.3,54.9,30.02,ESE,109,18.4,18.4,95,0.00,CLR,,0.16,0.0,WeatherDisplay:10.37,2013-05-03 23:54:00,
2013-05-03 19:59:00,56.3,54.9,30.02,East,88,12.7,12.7,95,0.01,RA,,0.16,7.0,WeatherDisplay:10.37,2013-05-03 23:59:00,
2013-05-03 20:04:00,56.3,54.9,30.02,ESE,104,14.0,14.0,95,0.01,RA,,0.16,5.0,WeatherDisplay:10.37,2013-05-04 00:04:00,
2013-05-03 20:09:00,56.2,54.8,30.02,ENE,76,20.7,20.7,95,0.01,CLR,,0.16,0.0,WeatherDisplay:10.37,2013-05-04 00:09:00,
2013-05-03 20:14:00,56.2,55.1,30.02,SE,130,12.7,12.7,96,0.01,CLR,,0.16,0.0,WeatherDisplay:10.37,2013-05-04 00:14:00,
2013-05-03 20:20:00,56.2,55.1,30.02,East,98,10.0,10.0,96,0.01,CLR,,0.16,0.0,WeatherDisplay:10.37,2013-05-04 00:20:00,
2013-05-03 20:25:00,56.2,55.1,30.02,ESE,120,15.0,15.0,96,0.01,CLR,,0.16,0.0,WeatherDisplay:10.37,2013-05-04 00:25:00,
2013-05-03 20:30:00,56.1,55.0,30.02,ESE,105,19.6,19.6,96,0.01,CLR,,0.16,0.0,WeatherDisplay:10.37,2013-05-04 00:30:00,
2013-05-03 20:35:00,56.1,55.0,30.02,SE,135,16.1,16.1,96,0.01,CLR,,0.16,0.0,WeatherDisplay:10.37,2013-05-04 00:35:00,
2013-05-03 20:40:00,56.1,55.0,30.02,ESE,105,11.5,11.5,96,0.01,CLR,,0.16,0.0,WeatherDisplay:10.37,2013-05-04 00:40:00,
2013-05-03 20:45:00,56.1,55.0,30.01,SE,132,13.0,13.0,96,0.01,CLR,,0.16,0.0,WeatherDisplay:10.37,2013-05-04 00:45:00,
2013-05-03 20:50:00,56.1,55.0,30.01,SSE,149,1.2,1.4,96,0.01,CLR,,0.16,0.0,WeatherDisplay:10.37,2013-05-04 00:50:00,
2013-05-03 20:55:00,56.1,55.0,30.02,SE,126,14.0,14.0,96,0.01,CLR,,0.16,0.0,WeatherDisplay:10.37,2013-05-04 00:55:00,
2013-05-03 21:00:00,56.1,55.0,30.02,SE,128,15.0,15.0,96,0.00,CLR,,0.16,0.0,WeatherDisplay:10.37,2013-05-04 01:00:00,
2013-05-03 21:05:00,56.1,55.0,30.02,East,94,15.0,15.0,96,0.00,CLR,,0.16,0.0,WeatherDisplay:10.37,2013-05-04 01:05:00,
2013-05-03 21:10:00,56.2,55.1,30.01,ESE,102,13.8,13.8,96,0.00,CLR,,0.16,0.0,WeatherDisplay:10.37,2013-05-04 01:10:00,
2013-05-03 21:15:00,56.2,55.1,30.02,East,98,26.0,26.0,96,0.00,CLR,,0.16,0.0,WeatherDisplay:10.37,2013-05-04 01:15:00,
2013-05-03 21:20:00,56.2,54.8,30.02,ENE,57,11.5,11.5,95,0.00,CLR,,0.16,0.0,WeatherDisplay:10.37,2013-05-04 01:20:00,
2013-05-03 21:25:00,56.2,54.8,30.01,East,95,17.3,17.3,95,0.00,CLR,,0.16,0.0,WeatherDisplay:10.37,2013-05-04 01:25:00,
2013-05-03 21:30:00,56.2,54.8,30.01,East,79,26.5,26.5,95,0.00,CLR,,0.16,0.0,WeatherDisplay:10.37,2013-05-04 01:30:00,
2013-05-03 21:35:00,56.2,54.8,30.02,ESE,121,12.7,12.7,95,0.00,CLR,,0.16,0.0,WeatherDisplay:10.37,2013-05-04 01:35:00,
2013-05-03 21:40:00,56.3,54.9,30.02,ENE,75,11.5,11.5,95,0.00,CLR,,0.16,0.0,WeatherDisplay:10.37,2013-05-04 01:40:00,
2013-05-03 21:45:00,56.3,54.9,30.02,East,87,18.4,18.4,95,0.00,CLR,,0.16,0.0,WeatherDisplay:10.37,2013-05-04 01:45:00,
2013-05-03 21:50:00,56.3,54.6,30.02,ESE,109,11.5,11.5,94,0.00,CLR,,0.16,0.0,WeatherDisplay:10.37,2013-05-04 01:50:00,
2013-05-03 21:55:00,56.3,54.6,30.03,North,11,13.8,13.8,94,0.00,CLR,,0.16,0.0,WeatherDisplay:10.37,2013-05-04 01:55:00,
2013-05-03 22:00:00,56.2,54.5,30.03,East,92,18.4,18.4,94,0.00,CLR,,0.16,0.0,WeatherDisplay:10.37,2013-05-04 02:00:00,
2013-05-03 22:05:00,56.2,54.2,30.04,ENE,76,18.4,18.4,93,0.00,CLR,,0.16,0.0,WeatherDisplay:10.37,2013-05-04 02:05:00,
2013-05-03 22:10:00,56.1,53.8,30.04,ESE,108,17.3,17.3,92,0.00,CLR,,0.16,0.0,WeatherDisplay:10.37,2013-05-04 02:10:00,
2013-05-03 22:15:00,56.1,53.8,30.04,ESE,107,16.0,16.0,92,0.00,CLR,,0.16,0.0,WeatherDisplay:10.37,2013-05-04 02:15:00,
2013-05-03 22:20:00,56.1,53.8,30.04,SE,131,9.2,9.2,92,0.00,CLR,,0.16,0.0,WeatherDisplay:10.37,2013-05-04 02:20:00,
2013-05-03 22:25:00,56.1,53.8,30.04,SE,142,11.5,11.5,92,0.00,CLR,,0.16,0.0,WeatherDisplay:10.37,2013-05-04 02:25:00,
2013-05-03 22:30:00,56.2,53.9,30.04,ESE,102,19.6,19.6,92,0.00,CLR,,0.16,0.0,WeatherDisplay:10.37,2013-05-04 02:30:00,
2013-05-03 22:35:00,56.2,53.6,30.04,South,183,9.0,9.0,91,0.00,CLR,,0.16,0.0,WeatherDisplay:10.37,2013-05-04 02:35:00,
2013-05-03 22:40:00,56.2,53.6,30.04,East,101,9.2,9.2,91,0.00,CLR,,0.16,0.0,WeatherDisplay:10.37,2013-05-04 02:40:00,
2013-05-03 22:45:00,56.2,53.6,30.04,East,93,12.7,12.7,91,0.00,CLR,,0.16,0.0,WeatherDisplay:10.37,2013-05-04 02:45:00,
2013-05-03 22:50:00,56.3,53.7,30.03,East,101,6.0,6.9,91,0.00,CLR,,0.16,0.0,WeatherDisplay:10.37,2013-05-04 02:50:00,
2013-05-03 22:55:00,56.2,53.6,30.03,ESE,123,15.0,15.0,91,0.00,CLR,,0.16,0.0,WeatherDisplay:10.37,2013-05-04 02:55:00,
2013-05-03 23:00:00,56.2,53.6,30.03,ESE,113,15.0,15.0,91,0.00,CLR,,0.16,0.0,WeatherDisplay:10.37,2013-05-04 03:00:00,
2013-05-03 23:05:00,56.2,53.6,30.03,East,82,12.7,12.7,91,0.00,CLR,,0.16,0.0,WeatherDisplay:10.37,2013-05-04 03:05:00,
2013-05-03 23:10:00,56.2,53.6,30.03,SW,234,17.3,17.3,91,0.00,CLR,,0.16,0.0,WeatherDisplay:10.37,2013-05-04 03:10:00,
2013-05-03 23:15:00,56.1,53.5,30.03,ESE,105,11.0,11.0,91,0.00,CLR,,0.16,0.0,WeatherDisplay:10.37,2013-05-04 03:15:00,
2013-05-03 23:20:00,56.1,53.5,30.03,ENE,73,12.7,12.7,91,0.00,CLR,,0.16,0.0,WeatherDisplay:10.37,2013-05-04 03:20:00,
2013-05-03 23:25:00,56.1,53.5,30.02,East,85,11.5,11.5,91,0.00,CLR,,0.16,0.0,WeatherDisplay:10.37,2013-05-04 03:25:00,
2013-05-03 23:30:00,56.0,53.4,30.03,ESE,107,3.0,20.0,91,0.00,CLR,,0.16,0.0,WeatherDisplay:10.37,2013-05-04 03:30:00,
2013-05-03 23:35:00,56.0,53.4,30.02,ESE,102,15.0,15.0,91,0.00,CLR,,0.16,0.0,WeatherDisplay:10.37,2013-05-04 03:35:00,
2013-05-03 23:40:00,56.0,53.4,30.02,ESE,117,11.5,11.5,91,0.00,CLR,,0.16,0.0,WeatherDisplay:10.37,2013-05-04 03:40:00,
2013-05-03 23:45:00,55.9,53.3,30.02,East,81,19.6,19.6,91,0.00,CLR,,0.16,0.0,WeatherDisplay:10.37,2013-05-04 03:45:00,
2013-05-03 23:50:00,55.9,53.3,30.02,East,89,6.0,23.0,91,0.00,CLR,,0.16,0.0,WeatherDisplay:10.37,2013-05-04 03:50:00,
2013-05-03 23:55:00,56.0,53.4,30.01,ESE,119,15.0,15.0,91,0.00,CLR,,0.16,0.0,WeatherDisplay:10.37,2013-05-04 03:55:00,